Home > Weather > Damascus > Past weeks

Flag for Syria Past Weather in Damascus, Syria — Yesterday and Last 2 Weeks

Now
102 °F

Sunny.


Feels Like: 97 °F
Forecast: 60 / 102 °F
Wind: 18 mph from Northwest

Location: Damascus Int. Airport

Current Time: Jun 25, 2016 at 7:06:02 PM

Latest Report: Jun 25, 2016 at 6:00 PM


Visibility: 10 mi

Pressure: 29.74 "Hg (27.58 "Hg at 689m altitude)

Humidity: 11%

Dew Point: 39 °F

Location of DamascusLocation

Past Weather in Damascus — Graph

°F

Damascus Temperature Yesterday

Maximum temperature yesterday: 106 °F (at 4:00 PM)
Minimum temperature yesterday: 64 °F (at 6:00 AM)
Average temperature yesterday: 87 °F

High & Low Weather Summary for the Past Weeks

 TemperatureHumidityPressure
High106 °F (Jun 23, 3:00 PM)94% (Jun 17, 6:00 AM)30.04 "Hg (Jun 17, 6:00 AM)
Low55 °F (Jun 12, 6:00 AM)7% (Jun 13, 3:00 PM)29.68 "Hg (Jun 24, 4:00 PM)
Average82 °F30%29.85 "Hg
* Reported Jun 10 6:00 PM — Jun 25 6:00 PM, Damascus, Weather by CustomWeather, © 2016

Note: Actual official high and low records may vary slightly from our data, if they occured in-between our weather recording intervals... More about our weather records

Advertising

Damascus Weather History for the Previous 24 Hours

Scroll right to see more
 ConditionsComfort  
Time TempWeatherWind HumidityBarometerVisibility
6:00 PM
Sat, Jun 25
102 °FSunny.18 mph11%29.74 "Hg10 mi
5:00 PM104 °FSunny.12 mph12%29.74 "Hg10 mi
3:00 PM104 °FSunny.9 mph9%29.77 "Hg10 mi
2:00 PM100 °FSunny.5 mph10%29.77 "Hg10 mi
1:00 PM99 °FSunny.10 mph12%29.80 "Hg10 mi
12:00 PM99 °FSunny.5 mph12%29.80 "Hg10 mi
11:00 AM95 °FSunny.8 mph16%29.83 "Hg10 mi
10:00 AM91 °FSunny.5 mph21%29.80 "Hg10 mi
9:00 AM84 °FSunny.6 mph29%29.80 "Hg10 mi
8:00 AM77 °FSunny.3 mph39%29.80 "Hg10 mi
7:00 AM70 °FSunny.6 mph53%29.80 "Hg10 mi
6:00 AM68 °FClear.9 mph60%29.77 "Hg10 mi
5:00 AM66 °FClear.9 mph52%29.77 "Hg10 mi
4:00 AM66 °FClear.7 mph52%29.77 "Hg10 mi
3:00 AM68 °FClear.6 mph53%29.77 "Hg10 mi
2:00 AM73 °FClear.7 mph50%29.77 "Hg10 mi
1:00 AM75 °FClear.13 mph50%29.77 "Hg10 mi
12:00 AM79 °FClear.16 mph48%29.77 "Hg10 mi
11:00 PM
Fri, Jun 24
81 °FClear.16 mph42%29.77 "Hg10 mi
10:00 PM84 °FClear.16 mph33%29.77 "Hg10 mi
9:00 PM88 °FClear.12 mph18%29.74 "Hg10 mi
8:00 PM93 °FSunny.12 mph14%29.71 "Hg10 mi
7:00 PM99 °FSunny.14 mph12%29.71 "Hg10 mi
Weather by CustomWeather, © 2016

See weather overviewHow to use our weather pages